Regional Weather Roundup
Issued by NWS Cleveland, OH

Home | Current Version | Previous Version | Graphics & Text | Print | Product List | Glossary On
Versions: 1 2 3 4 5 6 7 8 9 10 11 12 13 14 15 16 17 18 19 20 21 22 23 24 25 26 27 28 29 30 31 32 33 34 35 36 37 38 39 40 41 42 43 44 45 46 47 48 49 50
000
ASUS41 KCLE 231602
RWRCLE
OHIO REGIONAL WEATHER ROUNDUP
NATIONAL WEATHER SERVICE CLEVELAND, OH
1100 AM EST SUN NOV 23 2014

NOTE: "FAIR" INDICATES FEW OR NO CLOUDS BELOW 12,000 FEET WITH NO
SIGNIFICANT WEATHER AND/OR OBSTRUCTIONS TO VISIBILITY.

OHZ001>008-015>018-024>027-034-035-043-044-231700-
   NORTHWEST OHIO

CITY           SKY/WX    TMP DP  RH WIND       PRES   REMARKS
DEFIANCE       CLOUDY    52  43  71 S9        29.89F
FINDLAY        CLOUDY    52  44  74 SE10      29.91F
TOLEDO EXPRESS CLOUDY    49  44  83 S5        29.90F
TOLEDO EXEC    CLOUDY    50  43  77 S12       29.92F
LIMA           CLOUDY    56  45  66 S14       29.91F
$$

OHZ009>014-019>023-028>033-038-089-231700-
   NORTHEAST OHIO

CITY           SKY/WX    TMP DP  RH WIND       PRES   REMARKS
CLE-HOPKINS    CLOUDY    50  38  63 S10       30.01F
CLE-LAKEFRONT  CLOUDY    50  38  63 SE16      29.97F
CUY CO. ARPT   CLOUDY    50  41  71 S14G23    29.99F
LORAIN-ELYRIA  CLOUDY    50  40  68 S9        29.98F
ASHTABULA      LGT RAIN  45  41  86 SE10      30.02F
AKRON-CANTON   CLOUDY    50  36  58 S8        30.01F
WOOSTER        PTSUNNY  N/A N/A N/A S10       30.01F
MANSFIELD      CLOUDY    51  39  63 S10       29.98F
YOUNGSTOWN     CLOUDY    50  35  56 S9        30.03F
$$

OHZ042-051>053-060>062-070>072-077>081-231700-
  SOUTHWEST OHIO

CITY           SKY/WX    TMP DP  RH WIND       PRES   REMARKS
CINC-COVINGTON PTSUNNY   57  40  52 S12       29.91F
CINC-LUNKEN    PTSUNNY   57  40  52 SE7       29.92F
HAMILTON       PTSUNNY   60  41  49 MISG      29.92F
DAYTON         PTSUNNY   58  43  57 S14       29.92F
WRIGHT-PAT AFB NOT AVBL
DAYTON GENERAL PTSUNNY   58  43  57 S13       29.91F
WILMINGTON     PTSUNNY   57  40  52 S13       29.93F
$$

OHZ036-037-039>041-045>050-054>059-063>069-073>076-082>088-231700-
  CENTRAL AND SOUTHEAST OHIO

CITY           SKY/WX    TMP DP  RH WIND       PRES   REMARKS
COLUMBUS       PTSUNNY   53  37  54 SE6       29.97F
OSU AIRPORT    PTSUNNY   54  35  48 SE10      29.96F
BOLTON FIELD   CLOUDY    52  37  58 SE8       29.97F
RICKENBACK AFB NOT AVBL
NEWARK         CLOUDY    54  34  46 S6        29.98F
MARION         PTSUNNY   53  41  63 S13       29.96F
LANCASTER      PTSUNNY   55  33  43 SE8       29.98F
ZANESVILLE     PTSUNNY   55  32  41 S10       30.01F
NEW PHILLY     MOSUNNY   54  35  48 SE5       30.03F
$$



USA.gov is the U.S. government's official web portal to all federal, state and local government web resources and services.